Theta_e
318 319 319 321 320 318 320 322 321 322 322 323 322 322 323 322 323 323 322 322 321 320 317 321 323 323 321 322 323 321 318 312 307 306 304 308 318 324 323 323 322 325 322 313 307 305 304 304 303 305 304 304 305 303 311 311 313 314 304 301 298 299 298 302 302 302 303 300 302 303 306 304 301 304 305 306 305 306 306 305 308 312 312 314 313 314 313 313
320 320 320 321 321 320 320 321 321 321 321 322 322 322 323 323 323 323 322 322 322 321 321 322 322 322 322 321 321 320 315 309 305 304 305 318 324 324 323 324 324 324 321 309 304 304 302 302 304 303 303 301 307 302 308 304 312 306 302 300 296 300 301 302 305 305 301 300 303 304 304 303 302 302 304 300 300 301 300 302 306 307 309 312 314 314 311 312
320 320 320 320 320 320 320 320 320 321 321 321 321 321 322 323 323 323 322 322 322 322 323 323 323 321 319 322 321 319 311 305 303 301 306 321 321 323 325 324 324 322 313 305 304 304 303 303 304 302 302 300 304 300 303 301 306 304 300 296 298 302 301 304 305 302 305 304 302 301 301 301 302 301 304 300 299 300 298 299 301 302 304 308 310 313 312 312
320 320 319 320 320 320 320 320 320 320 321 321 321 321 322 322 322 322 322 322 322 322 322 322 322 321 321 321 321 322 307 303 299 302 308 320 322 326 325 325 323 320 312 307 306 305 304 303 303 303 301 298 301 302 299 302 300 301 300 297 298 301 299 302 302 301 304 304 300 299 300 299 300 301 302 300 297 297 299 301 301 301 303 305 307 306 313 311
319 319 319 319 319 319 319 319 320 321 321 322 321 321 321 321 321 321 321 322 322 322 322 321 321 322 321 320 315 313 304 296 297 305 309 320 324 324 324 321 319 314 309 307 306 305 304 303 302 301 300 297 300 300 299 300 304 300 299 302 300 300 297 301 301 303 302 302 299 298 296 297 301 301 299 299 295 295 298 301 302 302 303 304 304 305 310 311
318 318 319 319 319 319 319 319 320 321 321 321 321 321 321 320 320 321 321 321 322 322 322 322 322 322 321 315 313 309 301 289 303 305 321 320 325 323 321 320 318 317 309 305 305 304 302 302 301 298 298 297 296 296 298 300 303 294 298 298 300 301 299 302 301 299 300 299 297 296 298 300 298 297 299 298 297 299 303 304 303 303 303 304 306 305 303 309
318 318 319 319 318 318 318 319 320 321 321 322 321 322 321 320 320 320 320 320 321 321 322 322 322 321 321 318 312 305 301 300 302 308 319 321 323 322 319 316 315 312 307 304 302 303 301 300 299 297 297 296 297 296 298 297 301 296 292 297 297 298 298 300 298 299 299 297 296 298 300 296 296 293 298 297 299 301 302 303 302 303 304 305 304 303 303 304
318 319 318 318 318 318 318 318 319 320 320 321 321 321 321 320 320 319 319 320 320 321 322 321 321 321 320 310 304 301 299 298 304 307 316 321 322 317 315 311 309 307 305 303 302 300 300 298 297 299 296 294 296 296 298 296 297 295 294 297 298 299 299 299 298 298 298 297 298 297 295 294 296 295 297 296 298 300 301 302 302 302 302 302 303 303 302 303
318 318 318 318 317 317 318 318 319 319 319 319 320 320 320 320 319 319 319 319 320 321 321 321 321 319 319 310 303 298 297 302 306 306 309 308 310 309 308 306 306 305 303 303 303 302 300 299 298 298 294 295 298 295 297 294 292 296 296 297 297 297 298 298 298 297 297 297 297 294 293 296 297 298 295 297 298 300 302 301 301 301 300 300 301 302 302 302
318 318 317 317 317 317 318 318 318 318 318 318 319 320 320 319 319 319 319 319 320 321 321 320 320 316 308 302 302 294 300 305 305 306 305 304 307 306 305 306 305 304 303 302 302 302 299 300 299 300 299 296 298 295 298 295 293 297 296 296 295 296 296 297 296 297 297 296 296 293 293 294 297 294 291 298 300 300 299 299 299 299 299 299 300 300 301 301
318 317 317 317 317 317 317 317 317 317 317 318 319 319 319 319 318 318 319 319 319 320 320 320 319 312 305 303 297 295 302 305 307 305 303 304 304 304 304 304 305 304 303 302 302 303 302 301 301 301 299 296 297 296 296 296 299 296 295 295 294 295 296 297 297 296 296 294 296 294 292 294 295 294 291 297 300 299 298 298 299 299 299 300 300 300 301 301
318 317 317 317 318 317 317 318 317 317 318 319 319 319 319 318 318 318 318 319 320 320 320 321 319 312 305 301 298 298 304 306 307 306 305 303 303 303 303 304 304 304 303 301 302 303 303 302 301 299 294 299 293 297 296 297 296 295 295 290 293 295 294 296 295 295 294 293 294 295 292 291 293 291 296 298 300 300 298 297 298 298 299 299 300 300 300 300
317 317 317 318 318 317 318 318 318 318 319 319 319 319 319 318 318 318 319 319 320 319 320 320 316 308 305 297 299 303 306 307 306 304 304 305 304 304 304 303 303 303 303 302 302 303 303 302 301 297 300 298 296 292 299 296 295 296 294 292 292 292 293 295 296 294 292 293 294 294 285 292 294 295 298 300 299 298 297 297 297 298 298 298 298 298 298 299
316 317 317 317 318 318 318 318 319 319 319 319 319 318 318 318 318 318 318 319 320 320 317 314 312 306 303 299 301 304 305 307 304 304 303 305 303 302 303 304 304 304 304 302 302 303 302 303 301 300 303 297 295 300 296 295 296 291 294 295 290 288 289 293 294 294 291 294 294 294 285 290 294 297 300 299 298 296 295 296 297 297 296 296 296 296 295 296
317 317 317 316 318 318 318 318 318 318 318 318 318 318 318 317 318 319 319 318 320 320 315 309 311 306 300 301 304 306 312 306 303 302 303 303 302 301 301 303 302 302 303 303 302 302 303 302 301 297 296 300 299 296 293 293 295 294 290 288 292 288 291 293 295 294 291 293 294 293 287 290 294 296 297 297 297 296 296 296 295 294 292 292 292 292 292 292
316 317 317 316 318 318 318 318 318 318 318 317 317 318 318 318 319 319 320 322 320 318 315 308 306 304 301 298 301 313 304 301 301 302 303 302 301 300 301 301 301 301 302 301 304 303 303 302 297 299 297 297 294 292 292 292 292 293 289 287 287 290 290 291 292 295 294 293 293 292 287 290 292 296 296 297 297 297 295 292 291 291 290 290 290 290 290 291
316 316 317 316 317 317 317 317 317 317 317 318 318 318 319 319 319 319 319 318 316 315 309 307 306 305 296 301 304 300 300 301 301 302 301 302 301 301 301 300 300 300 301 301 302 302 301 298 299 297 298 293 295 294 288 287 288 290 291 287 290 287 290 288 291 292 293 292 290 293 289 290 293 296 298 298 297 293 290 289 290 289 289 289 289 289 289 289
316 316 316 317 317 318 318 318 317 317 318 318 320 319 319 319 317 314 313 313 313 311 311 309 307 302 298 301 296 298 300 300 300 300 300 301 301 301 300 299 299 300 300 298 300 296 299 295 297 292 294 294 293 290 286 284 287 287 288 287 288 290 290 289 289 292 291 292 289 290 290 290 293 296 296 293 292 290 289 289 288 288 288 288 288 288 288 288
316 316 315 317 317 317 317 318 318 318 318 318 317 317 316 314 316 312 307 306 305 302 299 300 299 294 292 296 299 300 300 299 300 300 298 299 301 300 300 301 299 297 295 294 295 295 297 295 297 292 288 291 291 292 289 290 291 289 289 288 288 286 287 288 292 293 292 291 290 290 289 291 293 295 292 290 290 289 288 288 288 288 288 287 287 287 288 288
316 316 316 316 317 316 316 318 318 318 317 315 312 311 309 306 304 302 306 303 301 301 299 299 300 299 298 298 298 300 300 300 297 298 299 300 300 299 298 298 297 296 295 292 295 294 298 290 288 289 292 293 294 294 293 292 292 291 290 289 288 288 289 292 293 293 294 289 288 290 291 291 292 293 289 289 289 288 287 286 286 287 286 286 286 286 287 287
315 315 315 315 316 317 316 317 318 318 318 318 314 310 302 301 298 298 302 305 301 301 299 301 299 297 297 298 299 299 296 297 299 297 298 300 299 296 295 295 294 292 294 296 294 297 295 288 289 292 293 293 292 292 291 290 290 289 288 288 287 289 287 291 291 291 293 288 287 290 289 290 291 292 288 288 287 285 285 285 285 285 286 286 286 286 286 287
315 315 315 315 316 316 316 317 318 317 313 316 312 307 304 307 310 307 304 298 300 300 299 298 298 298 298 298 298 298 297 295 295 296 300 300 297 294 294 293 293 291 295 294 294 291 289 287 291 293 293 292 291 291 290 290 289 290 288 288 286 288 291 292 290 289 290 289 287 289 287 288 290 289 286 286 285 285 286 285 285 285 285 285 285 285 286 286
316 315 315 316 315 317 316 318 316 315 315 311 311 307 307 313 311 311 307 301 299 300 300 299 297 297 296 297 298 298 294 294 293 295 296 299 296 294 295 292 292 292 293 292 289 289 287 291 291 291 291 290 290 290 290 290 290 287 287 286 286 290 287 284 290 288 290 287 286 287 285 287 289 286 286 287 286 286 286 286 286 286 284 284 285 285 285 285
315 315 315 315 315 316 316 316 316 313 312 313 310 309 312 314 310 308 306 297 296 300 300 298 298 297 295 294 298 296 295 294 294 293 299 298 294 296 293 293 291 291 290 291 290 289 288 293 291 291 290 289 288 289 288 288 287 290 290 288 286 287 288 287 287 289 291 291 290 287 285 286 287 284 284 285 287 286 286 286 286 286 286 286 286 286 286 285
315 314 314 314 315 317 315 314 310 310 315 309 309 312 312 312 312 313 305 298 296 297 300 300 299 297 297 299 299 295 296 295 294 295 298 298 294 293 293 294 291 289 291 294 291 289 289 290 288 289 289 288 288 288 289 289 285 287 290 289 289 287 286 286 287 286 284 285 287 285 280 282 285 285 284 285 286 284 285 285 285 285 285 286 285 285 286 286
314 315 314 314 315 316 316 307 307 311 309 307 311 311 312 311 311 310 302 293 287 294 299 295 299 294 299 296 299 298 296 293 294 295 297 297 298 293 294 292 293 289 291 290 290 290 291 288 289 289 289 289 289 288 290 288 285 284 285 285 287 285 285 286 285 285 281 280 285 285 279 277 286 284 285 284 284 284 285 284 284 285 285 285 285 285 285 285
314 314 314 314 315 316 306 302 312 311 303 308 312 313 312 311 312 311 298 289 286 293 294 298 298 297 300 298 296 299 290 292 295 296 296 297 294 299 290 292 292 293 294 294 289 287 290 288 287 288 287 289 288 287 289 288 284 284 285 287 286 286 285 285 285 284 282 287 288 287 284 279 280 284 285 285 283 283 283 283 284 284 284 284 284 284 284 285
315 315 314 315 315 315 311 309 308 305 308 311 311 311 312 311 311 310 294 281 280 298 294 297 298 302 299 298 298 294 294 296 292 294 296 296 296 295 292 291 291 292 292 291 283 291 289 288 288 287 287 286 286 287 288 289 285 285 285 286 285 285 285 285 284 283 284 282 279 284 286 279 279 283 285 285 282 281 281 282 283 283 284 284 284 284 284 284
314 314 315 315 314 310 314 312 310 309 311 312 310 311 313 312 308 297 288 279 291 294 304 296 301 298 298 299 296 295 295 296 291 296 296 296 296 295 291 293 292 291 293 290 286 290 291 288 288 288 286 285 288 287 286 288 284 287 286 287 287 286 286 285 283 282 282 280 276 282 284 277 279 283 283 283 280 278 279 281 282 283 283 284 283 283 284 284
314 315 314 313 312 313 314 316 312 311 309 309 311 311 310 308 301 290 283 278 294 287 296 298 297 292 298 295 294 295 293 293 294 296 297 294 294 295 293 294 292 292 290 292 289 290 289 290 290 288 287 287 287 286 286 285 287 287 287 286 286 286 284 284 283 282 280 276 279 283 284 282 275 281 279 279 277 277 279 281 282 283 283 283 283 283 283 283
314 313 312 310 312 313 313 306 311 312 310 310 309 307 307 301 290 285 278 284 293 293 298 296 293 298 293 290 289 294 295 293 292 294 293 296 294 294 295 291 294 289 288 289 287 291 291 289 289 289 288 288 287 286 285 285 286 286 285 284 284 283 286 282 281 282 275 275 280 281 281 282 273 279 278 279 280 280 279 279 280 280 281 282 283 283 283 283
312 311 312 314 310 315 312 309 310 310 311 308 307 307 300 288 289 283 281 296 286 290 291 290 295 291 292 291 291 290 288 292 293 292 289 291 289 288 287 284 286 283 285 285 284 291 289 286 286 289 289 285 287 286 285 285 286 285 284 284 279 276 279 275 279 274 277 276 280 282 282 278 279 280 279 280 279 280 281 281 281 281 281 282 282 282 282 283
309 309 309 310 312 312 309 309 307 310 311 309 305 301 293 285 280 285 285 289 284 291 290 294 291 291 290 291 288 289 291 288 292 293 290 291 290 288 290 288 289 286 279 284 284 284 284 284 288 287 286 288 287 283 283 283 286 285 282 280 277 274 272 270 274 277 276 280 283 281 281 276 281 278 281 279 280 281 281 282 282 282 281 281 282 282 282 282
309 312 309 306 309 307 308 307 308 308 308 307 301 295 289 283 281 285 285 288 289 294 292 291 291 291 291 287 287 289 286 290 290 290 293 288 289 286 287 289 289 286 286 285 282 280 279 281 284 285 283 287 286 286 284 283 283 284 285 282 279 276 274 269 273 270 272 275 279 283 278 275 276 277 280 280 281 281 282 282 283 283 282 282 282 282 282 281
309 311 310 309 311 309 310 308 308 308 309 304 297 291 283 282 285 284 286 289 291 292 291 291 289 289 289 288 289 289 287 285 291 290 288 288 285 285 284 284 288 288 287 283 284 283 282 282 284 285 285 286 286 287 286 285 284 285 284 285 280 278 282 273 276 275 274 274 274 277 276 280 278 279 282 282 282 282 281 281 281 281 281 281 280 280 280 281
312 309 315 308 309 310 311 310 306 306 307 300 292 286 284 284 284 287 288 292 291 289 290 291 289 287 287 287 288 288 290 286 289 289 286 286 286 284 286 286 285 287 283 280 283 279 282 280 283 288 286 286 286 287 287 288 277 283 283 280 280 285 281 277 277 279 279 276 272 280 278 280 277 280 280 282 281 281 281 280 280 280 280 280 279 279 280 280
306 310 304 307 307 309 309 311 307 307 306 298 291 285 286 288 289 290 292 290 290 289 289 284 285 284 284 284 286 286 287 288 287 287 283 287 284 285 285 286 289 287 286 284 282 286 278 279 286 286 283 287 286 286 287 287 287 283 279 281 286 287 283 278 271 274 273 270 272 277 274 276 277 273 278 280 279 279 279 279 278 279 279 278 278 279 279 280
306 305 306 305 305 308 310 309 309 308 302 295 287 289 291 288 291 291 291 292 291 289 287 286 285 288 284 284 284 284 287 285 286 287 284 286 281 288 285 284 289 287 287 289 282 284 285 277 283 283 285 287 285 285 285 286 288 283 281 288 279 275 273 279 276 268 268 267 270 273 276 276 277 275 276 277 275 276 277 278 277 277 278 278 278 279 280 280
307 305 300 304 309 308 310 309 309 303 297 289 288 287 290 291 292 291 292 291 291 288 287 286 285 287 286 285 284 287 285 282 285 284 283 284 281 286 285 286 285 288 288 288 284 285 286 278 280 284 284 286 285 285 278 282 286 285 287 283 286 281 277 274 275 274 273 267 268 269 274 272 276 275 276 275 276 276 276 277 276 277 277 277 278 279 279 279
304 301 297 309 309 309 309 308 305 299 294 288 288 287 291 290 292 292 292 291 290 289 287 287 288 285 287 286 286 283 286 286 284 284 285 284 283 286 284 288 284 286 288 289 285 288 282 286 275 283 287 286 280 283 280 281 279 281 282 281 281 280 282 279 278 275 272 270 269 268 267 273 275 278 277 276 276 276 276 275 276 276 276 277 278 278 279 279
304 302 298 309 310 310 311 309 298 293 289 289 293 291 292 291 293 292 293 293 293 293 290 288 288 285 286 285 285 287 284 286 285 284 284 284 284 281 286 285 286 284 287 287 285 285 282 283 277 280 280 280 281 284 283 282 283 282 280 279 279 276 273 270 269 280 274 273 269 268 266 274 277 280 277 277 277 276 276 276 275 276 276 277 278 279 279 278
300 293 297 308 308 311 307 294 290 292 292 289 288 292 292 294 292 291 292 292 291 290 292 290 289 288 287 286 286 286 285 285 285 285 285 283 285 284 286 289 288 288 283 282 282 286 283 282 280 277 280 280 283 282 285 286 285 283 282 279 280 279 278 273 267 271 274 274 275 272 268 271 275 278 278 277 278 277 278 278 277 278 278 278 279 279 278 278
299 295 303 307 308 309 299 290 292 291 289 289 291 293 293 292 291 290 291 291 290 291 290 289 287 287 287 286 286 286 286 284 284 283 284 285 283 284 288 289 290 288 288 285 286 285 285 279 278 279 282 285 283 285 284 285 284 282 282 282 279 276 276 274 273 274 271 271 270 271 268 271 274 279 279 279 279 279 279 279 277 278 278 278 278 278 278 278
299 298 301 309 311 308 298 288 288 288 288 292 291 289 292 292 292 291 290 290 289 289 288 287 289 289 286 289 287 285 287 281 286 285 284 285 284 288 289 289 289 285 285 283 281 286 279 281 279 275 275 278 280 281 281 282 283 281 278 279 279 279 278 276 276 276 269 271 271 268 263 270 274 278 278 277 277 277 278 279 279 277 277 278 278 278 278 277
298 301 300 302 306 304 295 295 293 289 288 289 289 288 290 289 290 290 290 289 291 289 289 287 287 289 288 288 286 287 287 284 282 285 283 284 283 288 288 289 289 286 288 287 285 287 281 280 278 272 269 268 267 268 271 273 276 278 279 279 278 275 274 272 269 271 267 270 270 267 267 272 274 276 275 275 275 276 278 278 278 278 277 277 277 277 276 276
296 288 296 297 301 299 295 295 296 292 287 287 286 287 289 286 289 291 292 289 290 290 289 289 289 288 287 287 285 285 284 286 283 283 283 283 284 286 288 288 287 286 286 284 284 285 281 281 279 277 275 273 274 276 279 280 277 273 276 277 274 276 276 274 273 270 267 267 267 270 270 267 269 272 272 274 275 275 275 276 275 275 276 276 277 276 276 276
299 292 292 289 295 295 293 296 293 294 288 292 286 287 285 287 287 289 292 286 288 290 288 288 287 286 284 285 283 284 284 283 285 282 280 281 283 284 288 287 286 286 285 284 284 283 280 277 280 278 277 277 277 277 278 278 275 276 276 275 275 274 274 272 269 266 271 267 263 271 270 267 268 270 272 273 275 275 275 275 275 275 275 275 275 276 277 276
294 292 295 293 292 289 290 289 294 291 292 292 286 288 286 286 286 285 289 289 289 288 286 288 287 286 285 283 284 280 281 281 283 280 283 282 282 284 283 285 284 285 285 283 284 280 277 275 278 275 275 276 277 277 278 277 277 277 276 274 273 274 273 269 270 271 270 266 263 268 269 267 269 271 273 274 275 274 274 274 275 275 275 276 275 275 274 274
297 294 294 294 291 287 290 290 293 292 290 290 287 288 286 286 284 285 286 287 288 284 287 281 283 285 284 284 283 280 280 278 279 281 278 279 279 280 282 283 285 285 284 282 282 282 278 277 276 277 274 275 277 277 278 276 276 276 275 273 274 273 272 272 270 271 270 268 269 269 268 268 270 272 274 275 276 275 275 275 275 275 274 274 274 274 274 273
293 294 289 294 293 289 288 290 291 291 288 289 285 285 286 286 285 286 286 286 283 283 287 283 283 286 285 283 283 280 280 282 281 278 282 280 281 282 281 282 281 284 283 280 280 282 278 275 276 275 273 274 276 277 277 276 276 274 274 273 273 272 272 272 271 270 270 268 269 268 268 267 273 275 274 276 276 275 275 274 273 274 274 273 273 273 273 273
299 298 298 292 288 287 290 290 291 290 287 288 286 285 286 286 285 286 284 287 284 282 284 283 284 285 285 284 283 282 284 283 284 284 285 284 280 284 281 281 283 280 281 279 280 278 279 275 277 275 272 272 276 274 276 276 275 273 271 271 271 270 268 269 268 270 268 266 267 267 266 266 272 274 275 275 274 274 273 273 273 273 273 273 273 273 273 273
298 297 297 299 288 286 287 288 289 290 284 285 286 286 286 287 287 287 283 286 286 286 286 285 285 285 286 283 281 282 284 285 285 286 286 286 287 286 285 283 283 280 279 279 279 277 276 274 273 274 270 270 275 275 274 274 272 268 268 269 270 270 270 270 271 272 270 270 266 264 265 270 272 274 272 272 273 272 272 273 273 273 273 273 272 272 273 273
Wind_Speed
2 3 4 10 13 12 11 10 7 7 8 9 8 7 6 5 5 5 4 4 4 4 5 5 4 3 4 4 4 4 3 6 4 4 4 4 5 5 5 2 1 2 4 5 5 5 6 6 7 5 6 5 3 6 3 4 5 4 6 7 9 9 10 7 10 7 11 12 11 11 6 8 13 9 3 2 10 13 14 14 11 12 12 12 9 6 7 7
3 4 1 9 12 12 10 10 9 8 8 9 8 7 7 7 7 6 6 5 4 5 5 4 4 4 4 5 4 3 5 6 6 4 3 4 5 6 4 4 2 4 3 6 6 6 6 6 5 6 6 6 4 3 3 4 4 7 7 8 11 9 10 11 7 11 11 10 12 12 13 11 10 10 8 12 14 15 16 14 11 12 14 14 14 9 9 8
3 4 2 10 13 12 10 10 9 9 9 10 9 8 8 8 7 6 6 5 4 4 5 5 3 4 5 4 4 4 5 8 6 5 5 3 4 4 3 2 3 3 6 6 3 6 6 4 3 6 6 7 5 4 4 5 5 8 8 10 10 10 12 10 9 11 9 10 12 13 13 12 12 13 9 12 16 17 18 13 13 13 13 12 13 15 11 11
8 6 5 9 10 12 11 10 11 12 11 10 9 8 8 8 7 6 5 4 4 4 4 6 4 3 4 5 3 4 7 7 6 6 5 6 4 3 0 4 5 7 8 4 3 4 3 4 4 6 5 6 3 4 5 4 3 3 8 10 10 11 9 10 12 10 7 8 11 13 13 16 14 10 7 12 17 19 15 13 12 10 13 11 10 13 12 10
6 8 10 9 8 9 10 10 12 12 12 10 9 8 8 7 6 6 5 5 4 4 5 6 6 4 4 3 4 5 5 7 4 4 7 5 3 1 2 3 5 6 6 2 4 2 5 5 5 4 5 6 5 4 9 7 7 7 11 12 13 13 14 11 9 6 6 7 10 13 15 15 11 8 11 13 14 16 10 11 14 16 14 14 14 10 3 9
6 8 10 10 10 9 10 12 12 12 11 10 8 8 7 6 6 6 5 4 4 4 4 4 6 5 4 3 4 5 4 2 2 4 4 4 2 1 2 3 5 7 4 3 4 2 4 4 5 5 4 6 6 7 1 5 3 8 10 12 13 11 13 10 11 4 4 10 12 14 14 13 12 15 15 17 20 18 17 16 16 17 17 14 11 12 12 12
7 7 9 10 10 10 11 12 13 12 11 9 8 7 6 6 6 5 5 4 4 5 4 5 5 4 4 3 4 5 6 1 4 5 6 1 3 3 3 4 5 5 5 4 3 3 2 4 5 6 5 6 10 9 8 4 4 9 12 11 14 11 12 10 13 4 6 9 13 12 13 14 14 19 13 17 21 18 18 18 16 16 15 11 13 13 13 14
6 8 8 9 9 10 12 12 12 11 10 9 7 7 6 5 4 5 5 4 5 5 5 5 5 6 4 4 4 5 7 2 8 6 5 2 4 4 5 5 5 4 4 4 3 3 1 5 5 2 6 7 4 4 2 6 9 10 10 9 10 7 9 11 10 9 8 10 11 12 15 16 13 16 15 21 22 19 19 17 15 12 12 12 12 12 12 13
6 7 8 8 9 10 12 12 11 10 9 8 6 5 5 4 4 4 5 5 5 6 7 6 6 5 5 4 5 6 3 6 5 5 5 4 2 3 5 5 4 4 1 2 2 3 4 1 4 3 6 5 3 6 6 6 8 6 10 11 11 13 12 12 11 10 12 8 6 12 18 15 15 9 16 24 24 18 10 8 8 9 10 11 11 11 11 11
6 6 7 8 8 9 10 10 9 8 7 7 5 5 5 5 5 4 5 5 6 7 7 6 4 3 4 5 4 6 4 1 4 3 1 2 4 5 7 5 3 3 4 1 3 3 4 5 4 5 6 9 7 8 3 5 8 5 11 12 14 15 15 14 15 14 9 8 9 14 19 14 10 4 13 16 6 3 4 5 5 7 10 10 9 9 9 10
6 5 6 6 7 7 7 7 6 5 5 5 5 4 5 5 5 5 6 6 7 7 6 5 2 3 5 7 6 3 1 2 2 2 1 3 4 5 2 2 3 5 3 1 3 2 3 5 3 3 4 4 3 5 4 4 6 10 11 13 16 16 15 15 13 13 7 9 7 11 18 14 13 7 16 19 6 2 6 10 10 9 9 9 9 9 9 9
5 5 5 6 5 5 4 4 3 4 4 5 5 5 5 5 5 6 6 5 6 5 4 3 3 4 6 5 7 3 2 2 2 1 1 1 3 1 2 1 3 5 5 5 2 1 2 4 3 3 4 5 6 6 6 4 7 8 8 13 15 14 14 14 12 2 3 7 3 7 16 19 13 13 20 19 13 8 7 9 8 9 9 10 10 8 8 9
6 6 6 6 4 3 2 2 3 4 5 6 6 6 5 5 5 5 4 4 3 2 2 2 3 4 4 7 2 4 0 2 2 1 1 1 2 2 1 0 1 2 4 5 4 3 2 2 4 8 5 6 9 6 2 5 9 9 11 11 14 10 10 5 7 2 6 4 2 4 8 5 12 20 12 2 2 2 5 7 10 11 11 11 11 10 10 10
5 6 6 5 3 3 3 3 5 6 6 7 7 7 6 5 5 4 3 0 3 0 1 0 4 5 4 2 4 3 1 1 1 5 4 2 6 4 4 1 0 2 1 4 2 2 0 1 5 5 2 7 5 6 9 8 6 7 6 3 8 8 2 7 6 7 6 4 3 2 6 12 7 4 5 7 5 5 9 11 11 11 11 11 11 11 12 13
5 5 5 3 4 4 5 5 6 7 8 7 7 7 6 5 5 4 2 2 1 1 0 2 5 4 5 1 3 5 3 2 5 1 4 5 5 3 4 2 0 1 0 1 0 1 1 2 4 6 4 2 5 7 8 8 7 7 6 4 6 5 1 9 4 7 6 4 5 5 8 10 10 8 11 6 3 2 8 11 12 13 15 16 15 15 15 15
5 5 5 3 4 4 6 7 8 8 8 8 7 7 6 6 4 4 1 5 3 0 4 3 4 5 7 4 4 5 3 6 3 4 3 5 4 5 4 2 0 2 3 2 1 2 2 3 5 4 5 5 7 8 8 8 8 7 7 5 5 6 7 6 7 4 3 3 6 7 9 14 10 12 7 4 2 6 11 14 17 16 17 15 14 13 13 14
5 4 4 3 3 4 6 8 8 8 7 8 8 6 5 5 5 4 4 4 3 2 3 1 3 3 5 4 1 5 3 2 2 2 2 2 4 4 4 3 2 2 3 4 4 3 4 6 3 3 6 8 6 4 6 7 6 7 7 5 7 9 7 7 6 5 4 5 4 8 8 16 17 15 14 8 10 14 15 15 15 15 14 14 13 13 14 14
4 4 4 4 1 4 6 7 8 8 7 5 5 7 6 7 7 8 5 3 1 2 2 2 2 3 4 2 4 2 4 1 1 3 2 1 3 3 3 3 1 2 3 4 5 6 5 5 4 6 4 6 6 6 4 4 7 7 7 9 8 9 10 12 10 6 6 7 8 9 13 19 20 11 9 14 16 16 15 14 14 14 14 13 13 14 15 15
4 3 3 4 1 3 6 8 8 8 8 8 8 7 6 5 4 1 3 3 3 4 5 4 4 3 4 3 4 1 2 3 3 4 2 0 1 2 2 2 4 4 3 4 5 6 5 5 5 5 7 7 8 7 8 10 12 11 8 8 11 10 11 8 7 7 3 6 9 13 12 14 17 11 10 14 15 16 14 13 12 12 12 13 14 15 15 15
4 2 2 2 1 2 4 6 7 7 11 8 6 4 3 4 4 3 3 3 5 4 3 3 5 3 4 1 2 4 2 2 4 2 2 2 4 4 4 2 4 5 4 4 3 2 3 6 5 6 6 5 5 7 9 11 8 9 10 10 11 12 14 13 7 7 3 4 10 12 12 12 14 11 11 12 15 16 15 14 13 13 12 14 15 15 16 16
5 3 0 2 2 2 4 6 7 8 9 3 4 4 2 3 5 2 2 3 4 3 5 4 4 5 4 4 4 6 5 5 4 3 2 2 4 5 4 4 4 5 6 3 4 4 3 7 10 12 10 7 6 6 8 10 9 9 10 10 11 10 13 11 7 5 3 1 7 9 12 13 11 4 11 12 16 16 14 14 14 14 15 13 15 16 16 14
4 3 2 3 3 2 3 7 7 6 6 3 4 3 2 3 2 2 3 1 4 3 2 1 2 3 2 1 2 4 4 5 6 3 3 6 1 6 5 4 3 5 6 2 4 5 6 10 10 3 4 4 4 4 4 6 8 8 8 9 9 10 10 9 8 4 2 3 10 8 11 12 14 7 13 15 15 12 13 13 12 14 14 13 15 15 15 15
4 3 4 3 3 3 4 6 6 4 4 4 3 3 2 3 1 1 3 5 1 1 1 2 1 1 2 2 2 2 6 4 3 4 5 8 3 0 5 5 5 5 4 5 7 6 8 4 6 4 5 2 4 3 4 6 8 8 8 7 8 8 8 8 1 5 4 3 10 11 13 13 2 15 13 12 12 12 13 13 14 13 14 16 16 15 14 16
5 4 3 3 3 4 5 5 5 3 6 4 4 3 2 1 1 1 3 2 1 3 3 1 3 2 3 3 3 5 6 3 5 3 6 6 4 2 4 3 7 5 7 7 9 9 10 4 1 3 4 5 9 6 5 6 7 7 8 8 8 9 9 8 11 12 13 14 13 10 10 11 11 9 10 11 12 12 11 12 13 14 14 13 13 15 16 16
5 5 4 3 4 4 6 6 3 4 1 2 2 3 3 2 3 2 3 1 3 3 2 2 3 2 3 1 4 5 2 1 3 4 4 5 3 4 1 3 3 6 5 3 5 9 13 2 2 3 3 4 4 6 6 5 8 7 5 3 6 8 10 11 12 12 10 7 7 7 7 8 10 10 11 9 8 12 11 12 14 14 14 14 14 15 15 15
6 4 4 4 4 4 5 2 4 3 4 2 3 3 2 2 1 2 3 3 2 3 5 1 3 2 2 1 4 3 3 2 3 3 4 3 3 3 3 4 2 3 3 3 6 6 4 1 1 3 3 3 4 6 1 1 7 7 2 5 5 7 8 10 11 8 6 8 2 6 7 8 5 11 11 10 11 12 10 14 15 14 14 14 13 14 14 14
5 4 5 5 6 8 5 3 3 4 3 2 2 2 1 2 1 3 3 2 2 2 3 2 3 3 3 3 5 5 5 4 3 2 2 3 2 1 3 1 3 3 0 3 4 3 3 3 2 2 3 3 6 3 4 4 5 4 4 5 7 8 9 10 10 9 10 10 14 12 8 9 8 6 10 12 11 11 13 15 15 13 13 13 13 14 14 14
4 2 4 5 7 12 4 2 4 4 2 2 2 1 1 1 3 4 3 2 2 2 3 1 3 1 3 5 4 4 3 6 3 3 2 2 3 3 3 6 6 6 1 2 6 4 3 1 1 3 3 6 3 4 3 4 5 4 4 5 7 7 10 11 9 9 8 8 11 7 9 7 6 6 7 3 3 12 13 12 13 13 12 13 13 13 13 14
1 2 4 4 5 6 6 4 3 0 2 2 2 1 1 1 5 4 2 1 1 1 3 1 0 2 5 4 1 3 2 4 5 3 3 2 1 3 4 1 4 6 4 6 8 1 4 4 4 4 4 4 4 3 3 3 6 4 7 5 8 9 10 10 8 7 5 5 10 12 9 6 9 8 4 7 7 8 8 9 10 11 12 13 14 15 15 13
4 3 4 6 4 3 3 2 2 1 2 2 2 1 1 4 4 3 2 2 2 0 1 2 2 8 9 6 2 7 4 4 1 5 2 2 3 3 2 2 5 6 7 6 10 9 3 2 1 2 3 4 4 2 2 2 5 6 9 10 10 9 9 7 6 3 4 7 11 2 1 6 9 1 3 3 4 3 5 6 8 10 12 12 13 14 14 14
5 5 2 3 2 1 3 3 3 1 1 1 1 2 4 4 2 2 0 1 2 2 3 3 4 3 7 8 3 7 1 2 5 7 1 4 3 4 4 3 5 6 4 6 7 8 3 2 2 3 3 4 2 3 2 2 3 4 5 7 10 10 4 6 6 3 4 8 3 4 1 7 7 2 6 7 6 6 5 7 9 12 13 12 12 13 13 14
8 10 8 3 2 3 2 1 2 1 1 2 0 3 3 2 3 1 1 2 3 4 3 5 2 4 5 0 1 8 5 2 2 5 5 4 8 9 12 7 8 6 1 5 5 2 5 3 3 2 1 3 3 6 3 2 4 4 6 6 8 8 6 7 4 7 6 8 3 2 4 6 8 5 7 8 6 7 8 7 9 10 12 12 13 14 13 13
7 10 11 7 2 3 2 1 2 1 1 0 2 4 5 3 1 1 0 3 1 4 2 2 5 6 4 5 5 8 1 5 8 1 1 3 1 8 8 13 11 6 5 8 9 6 3 2 2 1 1 1 5 7 7 3 3 8 6 6 6 7 7 9 9 7 9 11 1 6 6 8 8 7 8 9 9 8 7 9 9 10 12 12 12 12 12 13
3 3 5 2 5 3 1 1 1 1 1 3 4 4 2 3 1 2 0 3 4 2 2 1 6 3 4 4 4 7 1 3 5 5 3 1 3 5 6 12 14 11 5 10 4 7 4 1 4 5 4 2 2 5 4 6 8 4 1 4 7 6 6 10 8 11 12 12 15 18 13 4 11 3 9 11 10 10 9 8 9 10 11 11 10 11 12 12
6 7 5 3 2 3 2 1 1 0 2 4 5 3 2 1 1 1 1 4 2 4 2 2 3 3 3 3 1 2 3 1 5 5 7 3 5 6 7 9 12 10 8 6 4 4 4 6 2 1 1 3 2 2 1 4 8 3 4 8 6 2 5 8 9 11 12 13 13 9 7 6 2 9 9 8 8 9 8 10 11 10 10 10 9 11 11 11
4 3 1 4 3 3 2 1 1 1 3 4 4 2 1 2 1 2 2 1 2 4 8 4 3 3 2 2 3 3 3 3 5 3 6 9 8 6 6 6 9 13 8 6 6 5 7 2 4 2 3 2 3 2 1 4 3 7 8 4 5 4 6 8 12 14 14 11 12 8 12 2 6 6 6 5 6 8 10 10 11 11 11 11 9 10 12 11
2 1 3 3 4 5 3 1 1 3 4 4 3 1 3 3 4 3 4 4 3 5 6 3 3 4 3 2 2 8 4 2 2 5 2 3 5 9 7 4 5 9 8 4 5 3 5 12 2 5 4 4 0 1 4 3 2 6 4 6 9 5 1 4 7 6 8 11 11 10 12 13 9 5 7 5 7 9 11 11 11 11 10 11 11 11 12 13
1 2 3 5 4 5 2 1 2 4 4 2 2 5 1 1 3 4 3 3 2 2 4 4 1 3 2 4 3 5 9 4 8 6 3 6 3 6 6 5 6 10 7 6 3 3 7 7 3 2 1 2 2 2 3 4 3 3 5 7 6 3 5 4 6 10 10 11 11 10 16 13 11 4 4 7 10 11 10 8 10 11 11 11 11 14 14 13
1 3 2 4 2 4 2 2 3 4 3 1 2 3 3 4 2 4 4 4 2 4 2 4 3 3 3 2 5 2 6 4 6 4 3 4 2 7 6 6 5 10 9 5 4 6 6 4 3 3 3 0 4 4 5 2 6 3 1 3 5 5 4 7 6 8 8 14 12 12 8 10 10 4 8 7 8 8 8 9 10 9 9 9 9 11 13 15
2 2 3 2 4 4 2 1 4 2 3 0 1 3 1 4 4 3 2 4 4 4 4 2 2 1 3 3 3 3 3 4 5 3 3 4 3 4 9 8 6 11 11 6 3 6 4 3 6 1 5 5 4 4 7 7 7 1 3 4 4 3 6 8 8 8 7 11 11 13 13 6 8 7 7 8 8 9 10 10 8 6 8 10 11 11 12 12
1 1 2 3 6 4 3 3 1 2 3 3 5 5 2 3 2 2 1 3 1 1 3 4 4 3 3 3 1 4 4 4 3 2 3 4 6 1 8 7 7 8 11 6 3 7 3 5 7 11 10 7 6 7 4 6 3 3 3 2 4 7 9 9 9 1 4 7 12 11 14 10 8 7 6 8 8 9 9 9 7 9 12 11 13 15 15 13
3 1 3 5 6 3 3 1 2 2 0 3 2 3 3 3 2 3 2 1 2 2 1 1 4 3 3 3 2 4 4 3 3 1 5 2 5 5 6 9 7 7 5 3 3 5 3 5 7 8 9 11 8 5 5 5 5 5 4 4 7 6 5 5 11 9 9 9 11 12 15 9 4 3 5 4 8 4 7 13 14 14 16 16 17 17 16 15
2 4 1 4 4 3 1 4 1 2 3 3 3 4 2 2 4 0 1 2 1 0 1 3 3 2 4 3 3 3 5 1 5 4 3 4 4 5 5 7 10 5 6 2 4 2 3 3 5 9 10 8 9 7 9 5 2 3 3 4 6 4 4 6 7 10 12 14 11 10 12 3 0 2 4 7 15 12 11 15 17 16 15 17 17 18 18 18
2 3 2 2 2 1 4 1 3 3 4 4 6 6 4 5 4 3 4 5 3 2 3 2 3 4 1 4 3 3 5 1 3 3 3 3 2 2 5 7 10 5 6 3 3 7 4 3 7 9 7 6 2 5 4 5 4 6 6 4 5 4 4 6 10 10 9 9 11 11 14 6 4 7 11 16 17 18 16 15 15 16 17 16 17 17 16 18
4 1 3 5 6 3 1 3 3 4 4 6 5 5 3 3 4 3 4 5 3 3 2 3 2 3 2 2 2 1 4 5 2 4 2 3 3 2 6 8 8 5 6 5 4 6 4 6 6 6 9 11 11 11 11 11 11 10 5 4 6 6 7 6 6 7 9 6 11 6 12 13 17 18 22 24 23 19 16 16 17 17 16 17 16 17 17 19
2 1 1 3 4 5 4 1 3 5 6 5 5 3 1 4 2 1 3 4 3 3 6 1 2 2 5 3 1 2 3 3 2 1 2 2 3 2 6 3 7 5 4 1 5 3 2 5 5 5 6 8 9 11 13 14 12 9 11 5 5 7 6 5 6 8 7 8 10 12 13 19 21 22 22 23 19 16 16 18 19 20 18 16 15 15 17 19
2 1 0 2 2 6 5 4 3 1 2 3 1 2 4 4 4 3 2 1 5 2 3 7 6 1 5 4 3 1 4 3 3 2 2 3 2 3 4 2 4 7 3 2 7 3 2 4 3 4 5 10 13 16 17 14 13 12 9 7 5 6 4 4 5 6 8 9 11 9 19 19 20 22 22 21 17 15 16 21 21 18 19 19 18 20 23 23
1 1 0 3 2 2 1 3 4 5 4 1 3 1 3 4 3 2 2 3 1 2 3 4 7 6 5 5 4 3 7 2 1 1 1 0 4 5 1 3 4 4 4 3 4 4 3 4 2 1 8 12 14 16 15 11 9 7 6 6 6 5 4 4 5 5 7 5 10 17 19 19 20 21 18 14 14 16 19 21 19 21 21 22 22 22 22 22
3 4 3 3 0 3 4 2 3 7 8 5 5 3 4 5 5 4 3 1 1 5 8 2 4 5 4 5 5 2 6 2 1 2 0 3 2 4 1 2 5 6 5 2 4 1 2 2 2 3 12 14 15 11 7 6 6 8 2 5 3 3 2 3 5 6 8 10 14 17 20 21 19 16 12 12 12 16 16 15 19 22 23 21 20 21 21 21
4 2 2 4 7 5 2 1 1 2 5 2 1 4 2 3 5 3 2 5 1 4 6 4 3 1 3 5 6 3 4 4 4 4 2 2 3 2 2 2 2 4 5 4 2 3 3 1 6 7 8 12 9 0 3 6 8 13 1 4 3 5 5 6 6 8 10 11 15 20 21 19 12 13 17 17 15 15 17 20 22 22 21 22 21 20 20 20
2 3 2 7 5 4 2 1 1 3 3 4 4 2 2 3 5 4 4 4 6 3 5 4 4 1 1 2 5 5 3 5 6 7 8 5 4 3 2 1 5 3 4 3 2 4 2 4 4 3 8 11 2 1 10 11 14 3 3 2 3 4 6 9 8 10 10 13 17 18 16 13 13 16 17 18 19 19 21 22 21 19 20 21 22 21 20 21
1 1 2 1 4 2 1 1 0 2 3 3 4 3 1 4 4 3 3 3 3 4 3 4 5 4 3 2 5 6 7 7 6 6 4 4 3 0 2 3 3 2 3 2 2 2 3 4 6 5 8 8 9 6 12 15 8 5 4 1 1 5 8 11 12 11 11 13 14 14 14 13 18 18 20 19 19 21 21 21 20 21 20 23 22 21 20 20
Wind_Direction
19 281 328 288 289 293 298 294 283 279 272 272 266 256 254 241 236 230 224 237 247 268 272 273 295 315 313 315 312 326 311 251 240 223 247 61 24 27 339 335 206 165 206 260 245 226 208 204 204 183 217 218 193 243 154 221 245 229 242 256 263 267 272 322 300 323 329 303 305 301 351 299 294 304 303 192 256 245 256 263 253 237 236 240 248 154 152 152
325 296 284 280 276 278 272 274 287 292 282 266 263 256 244 237 233 231 229 234 253 270 281 298 300 309 310 304 310 311 275 264 255 245 43 38 31 350 321 292 181 199 237 250 245 235 248 215 203 199 221 234 132 257 122 225 196 237 257 258 267 282 294 316 316 309 307 301 313 310 307 312 288 309 298 290 284 288 283 266 247 245 247 245 241 203 175 173
308 278 296 273 274 280 295 301 300 284 269 260 250 247 243 238 231 233 232 234 250 273 291 293 303 298 300 309 308 293 282 252 243 218 104 52 9 333 320 228 201 186 227 292 299 276 272 304 196 223 221 261 168 234 171 240 192 236 258 265 268 281 296 304 311 307 296 310 304 308 305 300 290 287 286 271 286 288 277 283 287 273 260 250 248 225 202 195
307 309 264 250 274 292 291 289 284 276 266 253 242 237 237 233 233 235 237 238 242 258 275 284 292 307 295 297 327 282 259 265 246 101 97 55 5 0 195 174 193 222 248 258 292 271 262 247 223 232 242 247 218 238 242 191 206 218 230 249 272 292 303 292 304 308 310 331 308 300 300 290 286 299 285 282 291 279 274 275 278 298 303 283 287 304 196 201
290 294 290 288 277 274 282 284 275 266 256 247 239 233 233 233 233 234 241 245 247 248 256 276 295 304 292 303 297 245 271 264 100 85 74 51 26 87 138 175 217 244 261 261 221 211 223 207 197 223 248 257 236 239 240 246 213 287 257 269 281 288 283 293 306 6 320 317 295 288 287 284 303 285 271 273 268 273 291 306 306 302 298 292 297 304 219 208
282 283 287 289 289 290 286 276 269 265 258 248 238 229 225 228 228 228 234 243 245 246 249 263 274 274 303 321 265 246 255 317 107 119 58 55 115 135 172 200 246 260 229 218 252 233 208 186 220 212 221 246 253 242 281 247 140 259 259 255 257 273 284 298 303 10 340 298 294 290 285 299 291 287 284 279 266 269 280 288 293 293 293 295 291 287 266 242
278 283 287 290 293 290 281 274 268 262 259 254 244 233 221 217 219 222 226 233 245 246 244 247 250 256 263 279 237 243 252 90 180 109 84 85 130 153 176 198 223 233 244 243 217 232 239 242 242 270 276 278 266 257 266 252 223 257 274 288 290 289 277 296 295 305 290 282 278 284 290 280 287 284 289 283 271 271 282 286 286 288 289 279 279 279 266 259
282 287 287 288 288 283 275 270 267 264 257 253 248 237 227 219 220 221 219 226 238 243 240 233 238 247 239 224 202 218 233 101 110 116 100 129 188 166 204 218 228 244 251 303 292 269 304 260 258 326 263 265 6 285 11 285 256 251 263 269 276 284 289 287 285 280 279 273 272 275 272 269 275 277 293 275 274 278 278 278 279 279 281 272 268 271 269 264
286 288 289 287 283 279 275 272 269 263 256 251 245 236 220 206 218 218 219 220 225 234 231 228 226 246 229 276 252 265 178 80 66 119 139 181 209 201 220 216 196 252 330 251 291 307 276 218 275 272 304 308 325 279 273 273 269 257 262 292 302 292 294 291 280 264 274 274 266 272 268 273 275 298 270 264 274 283 286 285 272 272 270 273 273 273 274 273
289 294 294 289 284 277 271 271 270 264 249 233 224 214 201 196 194 205 212 214 215 221 223 222 226 224 219 227 237 255 89 92 99 83 46 240 201 213 225 277 222 253 266 75 266 259 252 352 321 0 314 283 272 270 290 242 280 352 291 292 290 289 288 281 271 273 280 263 265 265 277 283 283 126 276 274 277 79 297 263 265 269 276 281 280 284 285 283
301 302 294 286 278 270 266 264 257 244 222 202 191 186 186 178 180 189 205 207 212 208 209 223 177 239 212 245 257 264 88 173 103 113 139 227 214 235 247 221 253 262 279 242 276 282 331 290 335 283 243 306 340 266 219 285 329 291 297 294 280 276 269 267 263 264 269 274 246 260 279 280 264 219 245 268 242 222 271 281 291 292 288 288 296 299 308 303
311 310 308 299 287 267 256 240 209 190 170 159 156 157 162 158 167 186 195 203 208 195 197 220 199 253 265 259 246 18 176 73 151 82 38 234 249 319 19 301 271 290 292 290 271 200 311 339 273 258 296 19 273 322 266 7 284 287 294 290 287 286 278 261 258 181 150 264 212 292 291 269 218 221 239 242 261 246 285 304 307 311 320 327 326 324 322 323
325 329 323 314 293 254 227 178 142 139 137 131 129 132 139 144 160 173 175 189 190 193 218 179 229 245 273 238 70 96 256 107 143 321 336 352 147 152 118 127 323 317 326 294 344 47 22 289 277 267 290 295 294 294 39 275 278 277 268 265 290 289 270 115 117 149 225 214 2 295 296 328 168 215 241 170 114 282 293 326 340 339 340 339 340 339 339 345
331 332 319 322 275 217 182 137 114 108 109 110 113 120 128 142 141 136 170 314 144 208 182 214 270 233 249 291 97 78 7 117 217 247 352 291 231 150 189 148 172 295 318 290 19 8 262 269 270 282 338 269 297 26 284 269 234 259 291 262 268 290 275 156 161 161 237 111 189 209 273 293 305 215 150 92 25 10 337 335 340 353 359 0 4 7 9 12
328 331 322 313 229 181 151 126 112 105 102 107 114 116 118 120 122 129 131 159 83 137 255 291 238 226 228 121 93 81 35 294 230 39 15 336 318 226 178 186 122 19 4 313 280 116 239 214 242 245 235 99 282 276 272 265 246 238 273 244 204 230 269 161 167 182 248 144 197 230 264 266 297 346 95 68 79 8 346 349 3 22 28 24 22 20 16 14
323 332 324 309 192 152 133 115 105 103 105 107 109 110 110 112 125 129 151 38 90 142 233 214 203 256 285 230 103 124 192 226 164 49 35 321 332 315 6 320 167 156 184 127 178 164 205 222 263 340 303 216 246 259 278 282 254 205 226 278 288 279 293 271 160 190 258 134 185 221 283 303 298 96 87 131 343 5 359 27 40 38 32 26 22 21 17 15
320 328 338 330 184 150 121 108 106 104 106 107 108 108 113 121 125 132 107 135 159 227 232 294 195 214 272 63 171 218 170 119 82 181 25 36 321 329 286 218 202 123 149 141 180 202 162 243 126 233 213 257 267 287 293 267 248 192 203 267 283 278 290 283 128 220 179 206 242 218 246 263 274 301 324 353 23 31 46 43 38 39 36 28 24 21 18 17
317 323 352 344 183 146 123 110 110 116 120 134 131 141 133 142 152 146 162 181 140 226 244 266 291 258 207 165 227 81 31 49 33 0 321 18 306 285 284 249 182 199 179 181 166 229 172 238 171 281 258 227 231 237 244 284 1 325 315 301 294 300 282 282 285 140 180 186 249 268 257 270 282 309 21 46 52 57 46 45 41 38 34 28 24 20 17 15
304 315 4 339 23 139 134 126 131 135 135 114 109 106 132 170 201 265 119 164 193 182 208 166 203 264 29 67 42 340 42 38 303 251 160 353 281 269 223 231 244 221 218 265 136 215 171 249 234 261 256 241 228 227 247 276 303 300 301 294 294 290 289 286 306 120 256 271 277 272 267 277 292 324 55 58 56 57 51 47 43 37 33 29 26 22 17 15
287 289 12 324 291 158 155 146 149 156 150 141 151 153 172 178 172 168 168 218 256 357 355 340 304 298 222 121 10 26 170 176 220 138 128 351 267 209 212 228 194 227 250 255 150 166 21 269 251 251 253 273 281 250 261 280 302 294 283 272 270 275 276 281 289 101 97 304 265 272 279 281 292 327 73 63 61 54 47 41 41 37 34 32 27 27 19 17
268 285 61 298 258 174 175 173 164 178 210 255 177 224 306 16 303 95 170 98 45 13 340 346 344 328 334 348 354 336 304 200 249 134 23 330 271 277 167 202 200 237 214 206 294 79 253 262 252 254 275 314 337 327 302 291 279 271 273 272 275 269 280 290 308 110 107 279 283 290 287 280 284 345 75 63 60 52 45 41 37 37 36 33 30 26 25 20
277 262 258 237 245 179 168 178 172 173 251 261 245 273 343 5 12 19 312 224 100 4 254 343 292 240 106 2 17 324 266 269 176 131 104 308 267 277 104 273 245 281 96 160 223 227 233 239 258 0 13 344 319 297 280 270 270 258 255 272 279 279 288 304 92 102 134 236 277 292 292 292 291 79 74 67 71 68 61 55 46 42 39 36 31 27 23 20
288 265 228 220 210 156 136 158 168 206 239 231 238 264 357 46 320 353 256 292 121 22 204 354 221 350 135 106 57 252 272 277 320 97 10 328 240 34 330 282 258 270 259 239 255 267 265 238 64 55 56 332 260 224 255 255 247 255 258 257 268 311 325 299 111 136 208 214 288 300 295 281 45 90 80 79 82 79 70 62 57 46 44 37 32 27 21 21
290 267 234 206 195 166 130 134 159 236 240 263 287 355 53 343 344 251 267 309 23 128 12 54 345 348 15 327 48 303 284 48 276 80 29 325 339 44 260 289 291 270 265 253 245 263 268 15 139 28 298 288 284 277 273 265 276 252 246 261 283 305 308 303 305 305 308 262 241 281 274 266 162 134 118 99 90 78 64 61 57 53 46 41 33 29 25 21
288 261 231 198 187 155 147 144 201 227 64 220 243 78 45 13 334 8 280 179 198 134 190 173 229 66 33 270 234 275 71 238 35 27 4 339 7 256 18 24 280 257 256 46 293 266 264 61 326 302 303 271 272 271 243 275 292 298 285 332 310 322 304 306 306 315 307 302 137 239 312 310 140 147 138 124 95 71 60 53 48 42 39 33 30 27 23 21
286 254 220 190 171 172 130 211 196 147 209 238 61 82 58 339 332 316 269 256 144 52 180 86 193 133 258 184 328 284 310 208 45 25 0 37 319 317 318 221 227 316 49 283 271 281 343 70 12 314 290 284 242 261 13 31 300 297 9 5 7 319 307 302 303 310 297 303 108 154 291 288 218 172 141 118 89 76 63 50 44 37 31 28 25 21 22 20
293 249 211 191 184 169 170 230 64 166 217 153 56 53 37 298 302 224 257 208 196 16 347 88 242 72 264 20 319 276 255 82 115 81 130 32 28 75 292 118 189 206 341 316 268 207 147 95 111 183 268 271 278 279 118 309 309 293 58 355 340 305 299 301 297 279 271 285 282 256 225 262 287 125 138 118 85 62 46 42 38 33 29 29 22 20 18 16
297 224 195 189 200 205 351 359 171 194 3 36 357 1 4 247 248 252 253 260 65 275 349 43 24 26 272 348 295 350 4 316 235 93 2 97 280 188 234 296 299 305 166 236 274 63 266 107 144 344 339 298 331 34 359 301 263 341 10 358 306 292 285 283 276 277 278 306 291 289 175 249 248 137 127 150 78 40 39 36 31 25 26 25 21 20 21 16
8 148 174 177 180 240 278 289 294 302 34 4 335 331 330 245 247 275 289 284 83 333 154 178 55 210 329 209 285 64 331 14 359 60 155 179 285 319 267 304 319 282 230 242 269 260 76 47 70 359 313 329 40 344 2 328 266 70 339 283 273 259 258 257 263 266 280 268 272 280 194 245 278 135 154 98 70 31 17 31 31 25 22 22 18 17 16 15
60 108 139 147 148 220 216 210 43 38 306 330 310 307 268 246 237 229 221 240 24 78 228 345 238 336 324 322 157 7 29 56 62 321 251 325 121 193 220 2 267 265 250 214 240 266 64 89 339 285 327 16 323 46 12 284 299 309 292 282 283 253 236 223 235 270 283 246 261 357 83 273 279 312 27 25 51 17 1 18 20 20 20 20 20 15 12 10
47 54 102 262 237 75 312 202 75 42 331 329 324 279 249 238 265 292 3 55 289 65 195 60 3 289 359 20 26 17 34 20 9 347 56 193 182 218 277 202 197 242 250 219 217 241 137 159 161 57 343 287 301 274 136 213 295 301 294 309 302 300 229 227 238 232 250 277 64 338 88 285 278 236 95 82 85 52 38 16 15 10 12 14 12 13 12 12
72 66 41 43 350 281 296 87 32 342 336 5 18 219 234 246 191 315 61 114 249 22 351 360 62 356 344 38 280 1 349 290 21 16 14 37 57 39 28 27 346 344 204 35 345 249 180 79 45 142 50 325 312 281 149 191 212 233 279 301 322 309 317 300 259 256 261 295 28 66 359 317 264 48 112 113 91 68 40 40 20 15 13 13 13 13 12 11
76 85 72 47 263 68 65 8 293 282 332 246 255 239 248 272 236 46 158 340 102 326 59 224 331 332 328 273 33 344 142 17 337 118 264 229 167 85 63 37 1 339 314 334 307 349 17 81 77 48 157 85 300 351 5 319 338 322 347 344 328 329 320 291 289 288 281 278 220 356 42 276 273 104 100 93 78 64 57 36 36 27 17 16 15 12 12 10
51 253 80 355 58 65 48 317 321 296 250 204 249 231 253 269 70 67 307 2 4 133 266 349 321 275 318 30 12 348 307 145 348 354 285 79 41 51 51 38 20 353 341 307 330 353 308 245 102 350 24 29 321 13 345 297 305 340 61 316 319 286 293 296 299 301 302 303 301 305 300 276 283 103 122 92 78 67 53 41 37 31 23 16 11 13 9 7
86 83 122 155 160 84 37 350 280 294 279 256 239 253 262 69 65 9 133 16 31 325 325 150 289 278 164 139 106 70 11 342 50 352 32 8 46 49 20 16 14 8 341 330 50 277 355 308 74 49 334 308 350 65 287 307 280 168 318 298 261 311 345 279 298 297 292 295 296 289 272 348 56 118 120 116 104 72 48 38 31 30 25 13 8 8 3 0
269 90 215 52 13 24 5 9 324 213 263 259 246 257 18 20 47 348 38 292 289 340 320 273 260 263 354 133 148 9 138 318 4 328 96 75 55 45 47 31 14 13 12 6 339 316 327 6 154 95 213 243 21 317 291 307 336 353 307 321 16 325 288 278 274 266 274 280 266 266 269 120 108 142 123 126 76 51 37 32 25 22 19 11 7 0 359 358
88 210 75 15 31 349 334 327 317 258 255 262 262 113 46 88 13 351 34 0 12 319 294 322 52 354 11 334 45 19 16 299 326 330 100 174 97 25 9 74 26 14 22 357 333 89 331 300 249 178 189 171 21 261 307 337 27 310 300 7 324 269 247 267 286 308 285 277 281 290 290 294 288 302 131 110 38 28 24 20 15 16 11 9 4 357 355 354
110 85 115 50 340 326 313 307 281 246 256 241 58 79 297 130 42 22 19 315 245 238 306 355 84 321 3 332 23 2 343 306 6 321 65 20 68 353 27 357 30 14 348 343 298 4 344 305 103 307 55 152 149 190 226 204 270 332 301 323 304 2 303 289 303 297 313 291 291 281 288 284 291 359 97 44 29 13 18 10 3 7 6 356 354 350 350 355
201 231 83 18 350 321 336 281 257 253 213 178 138 150 64 76 30 34 9 322 266 310 296 55 336 64 327 9 337 323 32 7 328 9 305 33 310 46 41 353 330 351 345 332 286 342 307 281 308 139 290 5 209 215 341 24 169 242 282 235 73 278 288 308 299 316 294 279 285 288 311 296 54 53 25 42 24 6 12 359 2 5 356 352 348 348 346 346
231 223 70 14 337 336 340 319 250 200 256 105 77 60 346 87 68 68 28 333 37 327 48 4 57 345 37 39 338 357 356 340 356 359 2 26 44 47 34 355 343 324 332 328 313 340 306 325 284 319 210 242 315 12 348 336 326 277 245 326 4 339 306 283 267 256 274 286 287 294 288 292 61 27 31 31 10 2 5 355 351 355 351 348 351 344 346 347
242 279 80 359 352 333 274 245 59 66 80 80 54 88 41 65 115 72 42 344 338 92 353 23 353 40 353 327 90 23 329 348 0 33 27 69 12 118 55 359 328 327 319 278 233 12 317 315 300 304 312 321 345 72 9 331 329 341 347 336 8 332 335 320 300 302 84 290 288 296 283 288 58 29 23 11 3 356 3 354 357 352 347 350 344 341 341 338
257 173 69 357 347 329 269 117 47 313 330 60 61 359 91 293 82 73 63 86 317 34 184 309 47 21 17 18 346 342 346 351 7 34 43 26 46 25 20 350 339 310 329 8 352 25 16 293 278 287 299 296 336 92 58 74 77 40 6 344 348 332 308 310 298 302 320 288 298 280 285 289 109 44 29 35 1 332 344 330 343 342 335 332 334 336 338 339
20 76 62 316 337 311 286 82 42 62 63 81 189 83 17 66 54 27 5 20 207 266 218 58 6 309 80 351 341 341 12 7 28 29 49 84 83 40 0 337 336 332 296 11 322 99 279 240 281 290 291 280 99 96 108 100 112 213 261 24 1 5 358 303 295 307 294 290 283 282 268 272 49 96 326 354 338 337 341 337 339 336 328 326 324 326 327 331
74 84 111 68 326 285 263 141 125 98 99 117 87 81 12 53 26 83 53 34 10 31 56 47 163 29 31 350 319 352 354 319 88 359 124 37 101 68 7 356 354 22 2 27 324 4 317 4 340 307 311 317 178 149 154 155 243 327 348 12 48 18 352 295 270 264 262 263 290 284 273 278 70 338 336 333 335 334 339 339 336 331 329 325 323 322 325 326
121 126 68 41 23 349 300 1 113 121 128 122 116 91 123 91 30 5 7 39 352 22 268 64 2 325 12 7 35 58 34 21 332 75 23 24 75 97 20 28 12 51 41 14 338 306 282 294 322 323 325 324 332 328 333 330 327 319 321 70 42 65 341 343 313 317 289 308 359 311 295 313 329 333 336 335 332 332 332 329 326 323 323 324 319 321 319 321
213 120 100 72 16 78 75 223 358 118 123 125 84 65 84 112 152 185 311 81 7 31 42 18 121 291 13 316 111 58 35 6 311 18 357 16 37 71 30 31 41 32 17 352 340 317 281 305 277 297 304 298 305 306 309 316 308 304 312 24 41 9 356 340 298 280 289 338 311 294 317 326 326 331 327 322 324 332 328 328 326 325 327 324 317 314 314 314
321 61 66 129 114 53 68 36 65 72 120 329 86 49 56 80 131 116 281 75 38 0 74 40 18 351 11 11 7 333 3 352 93 45 48 329 4 344 71 47 52 33 312 314 356 294 294 284 28 358 287 289 302 295 299 306 299 300 320 343 15 1 356 332 327 301 333 311 286 319 326 317 315 318 318 323 334 333 328 323 322 321 318 317 317 313 311 315
256 105 3 4 303 98 126 68 14 84 70 71 88 227 59 114 113 118 123 74 202 37 306 132 53 55 44 21 323 342 345 345 141 42 4 189 316 340 153 113 52 7 313 54 15 8 339 289 80 84 279 286 283 285 291 299 289 298 350 353 2 12 4 81 309 316 325 306 305 318 316 312 310 311 321 326 332 325 324 320 314 310 308 311 313 313 315 319
19 98 61 296 77 44 23 69 7 87 71 59 100 44 91 83 81 42 3 265 166 30 1 58 36 43 30 14 360 18 2 343 37 107 161 2 8 316 8 120 122 58 12 60 41 106 288 272 60 304 292 294 291 287 295 272 281 292 34 13 23 3 342 313 310 322 326 314 311 311 310 303 305 305 327 325 323 316 313 307 303 304 311 315 315 313 312 316
158 192 118 55 85 81 43 307 16 105 81 332 103 36 35 65 107 131 62 4 47 42 355 66 36 85 37 26 17 37 1 329 313 300 49 41 297 164 323 3 329 5 40 33 356 15 335 353 74 314 289 295 304 127 231 248 285 296 243 76 8 352 319 310 323 312 330 315 316 315 310 301 302 323 323 315 306 308 302 303 304 307 311 315 312 307 306 308
50 355 109 135 99 30 317 23 182 96 108 44 76 116 119 80 91 80 83 13 28 20 13 28 0 225 166 2 41 28 4 312 298 285 303 297 283 29 311 20 8 307 2 8 19 319 318 310 311 254 304 306 338 115 322 306 299 271 114 30 355 345 350 327 315 320 330 324 313 306 305 304 316 320 314 310 306 306 306 306 305 308 311 311 309 305 301 300
87 124 240 114 92 351 28 133 166 237 69 32 23 67 8 99 121 171 119 91 66 42 9 337 342 298 160 42 19 354 330 313 307 312 312 295 289 347 330 352 351 11 324 352 165 294 22 315 322 331 308 291 322 304 317 310 297 164 159 286 356 342 342 321 304 309 314 317 307 310 302 303 306 311 311 309 307 305 305 308 308 308 309 310 304 299 297 295